This demonstration page uses our WeatherBlox Daily Observations layout. Learn more.

Left ArrowRight Arrow

44.8408, -93.29828

Hourly Observations for April 19, 2019

Temp ( °F °C ) Dew Point ( °F °C ) Humidity (%) Winds ( mph kmh ) Pressure ( in mb ) Visibility ( mi km ) Precip ( " mm )
12:53 am 00:53 Clear 40 4.4 35 1.7 83 83 NW 6 9 29.99 1016 10 16 0.00 0.00
1:53 am 01:53 Clear 40 4.4 35 1.7 83 83 NW 5 7 30.01 1016 10 16 0.00 0.00
2:53 am 02:53 Clear 40 4.4 34 1.1 79 79 Calm 30.01 1016 10 16 0.00 0.00
3:53 am 03:53 Clear 38 3.3 33 0.6 83 83 Calm 30.02 1017 10 16 0.00 0.00
4:53 am 04:53 Clear 38 3.3 33 0.6 83 83 Calm 30.03 1017 10 16 0.00 0.00
5:53 am 05:53 Clear 37 2.8 32 0 82 82 SW 3 6 30.04 1017 10 16 0.00 0.00
6:53 am 06:53 Sunny 36 2.2 32 0 86 86 WSW 3 6 30.05 1018 10 16 0.00 0.00
7:53 am 07:53 Sunny 42 5.6 34 1.1 73 73 Calm 30.06 1018 10 16 0.00 0.00
8:53 am 08:53 Sunny 47 8.3 35 1.7 63 63 Calm 30.06 1018 10 16 0.00 0.00
9:53 am 09:53 Sunny 52 11.1 35 1.7 53 53 NW 3 6 30.06 1018 10 16 0.00 0.00
10:53 am 10:53 Sunny 57 13.9 31 -0.6 37 37 Calm 30.06 1018 10 16 0.00 0.00
11:53 am 11:53 Mostly Sunny 58 14.4 26 -3.3 29 29 NNW 6 9 30.06 1018 10 16 0.00 0.00
12:53 pm 12:53 Mostly Sunny 59 15 28 -2.2 31 31 NW 9 15 30.04 1017 10 16 0.00 0.00
1:53 pm 13:53 Mostly Sunny 62 16.7 28 -2.2 28 28 NNW 8 13 30.01 1016 10 16 0.00 0.00
2:53 pm 14:53 Mostly Sunny 61 16.1 27 -2.8 27 27 VRB 3 6 29.99 1016 10 16 0.00 0.00
3:53 pm 15:53 Mostly Sunny 63 17.2 28 -2.2 27 27 W 12 19 29.97 1015 10 16 0.00 0.00
4:53 pm 16:53 Sunny 63 17.2 26 -3.3 25 25 N 5 7 29.96 1014 10 16 0.00 0.00
5:53 pm 17:53 Sunny 63 17.2 26 -3.3 25 25 WSW 6 9 29.95 1014 10 16 0.00 0.00
6:53 pm 18:53 Mostly Sunny 62 16.7 28 -2.2 28 28 Calm 29.95 1014 10 16 0.00 0.00
7:53 pm 19:53 Sunny 60 15.6 27 -2.8 28 28 WSW 3 6 29.93 1014 10 16 0.00 0.00
8:53 pm 20:53 Clear 58 14.4 29 -1.7 33 33 WSW 6 9 29.93 1014 10 16 0.00 0.00
9:53 pm 21:53 Clear 57 13.9 29 -1.7 34 34 WSW 6 9 29.93 1014 10 16 0.00 0.00
10:53 pm 22:53 Clear 53 11.7 32 0 45 45 WSW 5 7 29.93 1014 10 16 0.00 0.00
11:53 pm 23:53 Clear 51 10.6 33 0.6 50 50 Calm 29.92 1013 10 16 0.00 0.00

Powered by AerisWeather